TimeEST,TemperatureF,Dew PointF,Humidity,Sea Level PressureIn,VisibilityMPH,Wind Direction,Wind SpeedMPH,Gust SpeedMPH,PrecipitationIn,Events,Conditions,WindDirDegrees,DateUTC
12:51 AM,19.0,16.0,88,30.23,10.0,Calm,Calm,-,N/A,,Clear,0,2012-11-07 05:51:00
1:51 AM,21.9,18.0,85,30.22,10.0,Calm,Calm,-,N/A,,Clear,0,2012-11-07 06:51:00
2:51 AM,24.1,19.0,81,30.21,10.0,NNE,5.8,-,N/A,,Clear,20,2012-11-07 07:51:00
3:51 AM,27.0,18.0,69,30.22,10.0,NNE,5.8,-,N/A,,Clear,20,2012-11-07 08:51:00
4:51 AM,28.0,17.1,63,30.18,10.0,NNE,8.1,-,N/A,,Partly Cloudy,20,2012-11-07 09:51:00
5:51 AM,28.4,17.6,64,30.16,10.0,NNE,6.9,-,N/A,,Scattered Clouds,20,2012-11-07 10:51:00
6:51 AM,28.9,17.1,61,30.18,10.0,NNE,8.1,-,N/A,,Clear,20,2012-11-07 11:51:00
7:51 AM,30.0,16.0,56,30.17,10.0,NNE,6.9,-,N/A,,Clear,30,2012-11-07 12:51:00
8:51 AM,30.9,16.0,54,30.16,10.0,North,9.2,-,N/A,,Clear,10,2012-11-07 13:51:00
9:51 AM,32.0,16.0,52,30.15,10.0,NNE,11.5,18.4,N/A,,Clear,20,2012-11-07 14:51:00
10:51 AM,33.1,15.1,48,30.12,10.0,NNE,12.7,19.6,N/A,,Clear,20,2012-11-07 15:51:00
11:51 AM,33.1,15.1,48,30.09,10.0,NNE,12.7,-,N/A,,Clear,30,2012-11-07 16:51:00
12:51 PM,33.1,14.0,46,30.05,10.0,North,9.2,-,N/A,,Clear,10,2012-11-07 17:51:00
1:51 PM,34.0,14.0,44,30.02,10.0,NNE,6.9,-,N/A,,Mostly Cloudy,30,2012-11-07 18:51:00
2:51 PM,34.0,12.9,42,30.00,10.0,North,5.8,-,N/A,,Overcast,10,2012-11-07 19:51:00
3:51 PM,35.1,12.0,39,29.98,10.0,North,5.8,16.1,N/A,,Overcast,360,2012-11-07 20:51:00
4:51 PM,35.1,10.9,37,29.98,10.0,NNE,11.5,-,N/A,,Overcast,20,2012-11-07 21:51:00
5:51 PM,35.6,8.6,33,29.96,10.0,NNE,12.7,21.9,N/A,,Overcast,20,2012-11-07 22:51:00
6:51 PM,36.0,9.0,33,29.96,10.0,North,11.5,-,N/A,,Overcast,10,2012-11-07 23:51:00
7:51 PM,37.0,10.9,34,29.95,10.0,North,6.9,17.3,N/A,,Overcast,10,2012-11-08 00:51:00
8:51 PM,37.0,12.0,36,29.95,10.0,NNE,11.5,16.1,N/A,,Overcast,30,2012-11-08 01:51:00
9:51 PM,37.0,12.9,37,29.93,10.0,NNE,16.1,21.9,N/A,,Overcast,30,2012-11-08 02:51:00
10:51 PM,36.0,18.0,48,29.91,10.0,NE,15.0,25.3,N/A,,Overcast,50,2012-11-08 03:51:00
11:51 PM,34.0,24.1,67,29.88,4.0,NNE,17.3,26.5,0.00,Snow,Light Snow,20,2012-11-08 04:51:00